AAR372 ZGSZ-RKSI

Flight info

Callsign AAR372
Flight time 2h 50m
Altitude 33100
Route K0869S1010 IDUMA1 IDUMA W22 SHL G471 EGEDA/K0870S0980 G471 PLT/K0863S1010 A599 PUD A593 AKARA/K0848F350 A593 LAMEN/N0458F350 A593 SADLI Y590 ELGEP DCT NIRAT Y722 OLMEN OLMEN2H
Aircraft A321/M-SDE3FGHIRWY/LB1

Departure

Time 2026-04-21 04:43
Airport Shenzhen Bao'an International Airport (ZGSZ)

Arrival

Time 2026-04-21 07:34
Airport Incheon International Airport (RKSI)
Time Latitude Longitude Altitude Speed Heading
2026-04-21 04:13 22.63026 113.80963 16 ft 0 kts 173°
2026-04-21 04:33 22.63040 113.80961 16 ft 3 kts 171°
2026-04-21 04:33 22.63060 113.80957 18 ft 3 kts 163°
2026-04-21 04:33 22.63079 113.80950 17 ft 3 kts 149°
2026-04-21 04:33 22.63093 113.80938 15 ft 3 kts 116°
2026-04-21 04:34 22.63097 113.80926 18 ft 0 kts 86°
2026-04-21 04:34 22.63097 113.80925 18 ft 0 kts 85°
2026-04-21 04:36 22.63097 113.80926 18 ft 0 kts 85°
2026-04-21 04:36 22.63100 113.80959 16 ft 10 kts 84°
2026-04-21 04:37 22.63110 113.81048 15 ft 13 kts 83°
2026-04-21 04:37 22.63121 113.81144 15 ft 13 kts 83°
2026-04-21 04:37 22.63142 113.81233 16 ft 12 kts 49°
2026-04-21 04:37 22.63220 113.81233 15 ft 12 kts 340°
2026-04-21 04:38 22.63296 113.81191 15 ft 15 kts 333°
2026-04-21 04:38 22.63416 113.81126 15 ft 21 kts 332°
2026-04-21 04:38 22.63548 113.81053 15 ft 21 kts 333°
2026-04-21 04:38 22.63681 113.80980 15 ft 21 kts 333°
2026-04-21 04:39 22.63814 113.80907 15 ft 21 kts 333°
2026-04-21 04:39 22.63947 113.80834 15 ft 21 kts 333°
2026-04-21 04:39 22.64080 113.80760 15 ft 21 kts 333°
2026-04-21 04:39 22.64213 113.80688 15 ft 21 kts 333°
2026-04-21 04:40 22.64346 113.80615 15 ft 21 kts 333°
2026-04-21 04:40 22.64479 113.80542 15 ft 21 kts 333°
2026-04-21 04:40 22.64612 113.80469 17 ft 21 kts 333°
2026-04-21 04:40 22.64746 113.80395 15 ft 21 kts 333°
2026-04-21 04:41 22.64879 113.80322 15 ft 21 kts 333°
2026-04-21 04:41 22.65013 113.80249 15 ft 22 kts 333°
2026-04-21 04:41 22.65127 113.80186 15 ft 15 kts 333°
2026-04-21 04:41 22.65205 113.80187 15 ft 11 kts 48°
2026-04-21 04:42 22.65245 113.80258 15 ft 11 kts 64°
2026-04-21 04:42 22.65249 113.80333 15 ft 10 kts 133°
2026-04-21 04:42 22.65185 113.80371 15 ft 11 kts 153°
2026-04-21 04:42 22.65047 113.80446 15 ft 45 kts 153°
2026-04-21 04:43 22.64568 113.80709 16 ft 108 kts 153°
2026-04-21 04:43 22.63738 113.81166 16 ft 158 kts 153°
2026-04-21 04:43 22.62671 113.81754 289 ft 176 kts 154°
2026-04-21 04:43 22.61579 113.82355 946 ft 177 kts 156°
2026-04-21 04:44 22.60470 113.82959 1606 ft 179 kts 156°
2026-04-21 04:44 22.59346 113.83573 2039 ft 188 kts 156°
2026-04-21 04:44 22.58119 113.84242 2179 ft 209 kts 156°
2026-04-21 04:44 22.56748 113.84985 2362 ft 231 kts 156°
2026-04-21 04:45 22.55307 113.85772 3053 ft 231 kts 155°
2026-04-21 04:45 22.53869 113.86560 3790 ft 232 kts 155°
2026-04-21 04:45 22.52422 113.87352 4453 ft 234 kts 155°
2026-04-21 04:45 22.50976 113.88195 5075 ft 238 kts 146°
2026-04-21 04:46 22.49989 113.89646 5640 ft 250 kts 109°
2026-04-21 04:46 22.49979 113.91547 6179 ft 263 kts 77°
2026-04-21 04:46 22.50399 113.92785 6542 ft 268 kts 67°
2026-04-21 04:46 22.51300 113.94576 7081 ft 273 kts 61°
2026-04-21 04:47 22.52307 113.96333 7617 ft 277 kts 60°
2026-04-21 04:47 22.53326 113.98121 8175 ft 280 kts 60°
2026-04-21 04:47 22.54464 113.99849 8751 ft 285 kts 45°
2026-04-21 04:47 22.56022 114.01180 9322 ft 288 kts 28°
2026-04-21 04:48 22.57911 114.02030 9588 ft 301 kts
2026-04-21 04:48 22.60007 114.02316 9965 ft 307 kts
2026-04-21 04:48 22.62192 114.02537 10110 ft 325 kts
2026-04-21 04:48 22.64509 114.02775 10230 ft 343 kts
2026-04-21 04:49 22.66946 114.03029 10345 ft 361 kts
2026-04-21 04:49 22.69497 114.03419 10465 ft 380 kts 12°
2026-04-21 04:49 22.72107 114.04176 10574 ft 396 kts 13°
2026-04-21 04:49 22.73896 114.04706 10737 ft 403 kts 13°
2026-04-21 04:50 22.76357 114.05455 11088 ft 408 kts 13°
2026-04-21 04:50 22.79102 114.06298 11545 ft 411 kts 13°
2026-04-21 04:50 22.81868 114.07150 12010 ft 415 kts 13°
2026-04-21 04:50 22.84646 114.08008 12481 ft 419 kts 13°
2026-04-21 04:51 22.87476 114.08879 12960 ft 422 kts 13°
2026-04-21 04:51 22.90313 114.09748 13431 ft 425 kts 13°
2026-04-21 04:51 22.93172 114.10624 13877 ft 429 kts 13°
2026-04-21 04:51 22.96053 114.11503 14319 ft 431 kts 13°
2026-04-21 04:52 22.98942 114.12383 14778 ft 433 kts 13°
2026-04-21 04:52 23.01848 114.13272 15250 ft 435 kts 13°
2026-04-21 04:52 23.04772 114.14171 15752 ft 437 kts 13°
2026-04-21 04:52 23.07701 114.15069 16212 ft 439 kts 13°
2026-04-21 04:53 23.10654 114.15972 16641 ft 441 kts 13°
2026-04-21 04:53 23.13608 114.16878 17070 ft 443 kts 13°
2026-04-21 04:53 23.16578 114.17790 17482 ft 444 kts 13°
2026-04-21 04:53 23.19563 114.18709 17887 ft 446 kts 13°
2026-04-21 04:54 23.22560 114.19632 18258 ft 448 kts 13°
2026-04-21 04:54 23.25568 114.20555 18578 ft 450 kts 13°
2026-04-21 04:54 23.28586 114.21480 18909 ft 452 kts 13°
2026-04-21 04:54 23.31626 114.22413 19231 ft 455 kts 13°
2026-04-21 04:55 23.34677 114.23350 19551 ft 457 kts 13°
2026-04-21 04:55 23.37741 114.24295 19869 ft 459 kts 13°
2026-04-21 04:55 23.40819 114.25245 20196 ft 461 kts 13°
2026-04-21 04:55 23.43919 114.26201 20525 ft 463 kts 13°
2026-04-21 04:56 23.47032 114.27160 20810 ft 466 kts 13°
2026-04-21 04:56 23.50154 114.28123 21068 ft 468 kts 13°
2026-04-21 04:56 23.53297 114.29092 21279 ft 471 kts 13°
2026-04-21 04:56 23.56455 114.30066 21562 ft 472 kts 13°
2026-04-21 04:57 23.59627 114.31023 21854 ft 473 kts 12°
2026-04-21 04:57 23.62824 114.31893 22125 ft 474 kts 11°
2026-04-21 04:57 23.66044 114.32693 22396 ft 476 kts
2026-04-21 04:57 23.69285 114.33460 22651 ft 478 kts
2026-04-21 04:58 23.72550 114.34226 22926 ft 480 kts
2026-04-21 04:58 23.75816 114.35007 23155 ft 482 kts
2026-04-21 04:58 23.79094 114.35813 23396 ft 483 kts 10°
2026-04-21 04:58 23.82372 114.36638 23595 ft 485 kts 10°
2026-04-21 04:59 23.85665 114.37475 23796 ft 487 kts 10°
2026-04-21 04:59 23.88966 114.38317 24029 ft 488 kts 10°
2026-04-21 04:59 23.92278 114.39160 24269 ft 489 kts 10°
2026-04-21 04:59 23.95597 114.40002 24527 ft 490 kts 10°
2026-04-21 05:00 23.98924 114.40843 24762 ft 491 kts 10°
2026-04-21 05:00 24.02256 114.41685 24993 ft 493 kts
2026-04-21 05:00 24.08949 114.43379 25527 ft 493 kts
2026-04-21 05:01 24.12286 114.44223 25951 ft 491 kts
2026-04-21 05:01 24.15605 114.45064 26310 ft 489 kts
2026-04-21 05:01 24.18925 114.45904 26633 ft 488 kts
2026-04-21 05:01 24.22230 114.46742 26974 ft 487 kts
2026-04-21 05:02 24.25529 114.47581 27327 ft 486 kts
2026-04-21 05:02 24.28816 114.48417 27648 ft 485 kts
2026-04-21 05:02 24.32097 114.49250 27998 ft 483 kts
2026-04-21 05:02 24.35365 114.50078 28345 ft 482 kts
2026-04-21 05:03 24.38627 114.50905 28701 ft 481 kts
2026-04-21 05:03 24.41882 114.51732 29052 ft 479 kts
2026-04-21 05:03 24.45132 114.52560 29405 ft 478 kts
2026-04-21 05:03 24.48369 114.53384 29746 ft 477 kts
2026-04-21 05:04 24.51596 114.54208 30083 ft 476 kts
2026-04-21 05:04 24.54812 114.55029 30357 ft 475 kts
2026-04-21 05:04 24.57984 114.55836 30622 ft 474 kts
2026-04-21 05:04 24.61200 114.56655 30902 ft 473 kts
2026-04-21 05:05 24.64447 114.57484 31171 ft 473 kts
2026-04-21 05:05 24.67653 114.58305 31436 ft 472 kts
2026-04-21 05:05 24.70850 114.59125 31692 ft 472 kts
2026-04-21 05:05 24.74047 114.59945 31955 ft 472 kts
2026-04-21 05:06 24.77241 114.60762 32216 ft 471 kts
2026-04-21 05:06 24.80437 114.61577 32475 ft 471 kts
2026-04-21 05:06 24.83627 114.62393 32718 ft 471 kts
2026-04-21 05:06 24.86776 114.63201 32943 ft 471 kts
2026-04-21 05:07 24.93240 114.64857 33022 ft 475 kts
2026-04-21 05:07 24.99695 114.66513 33019 ft 477 kts
2026-04-21 05:08 25.06164 114.68173 33016 ft 478 kts
2026-04-21 05:08 25.12616 114.69830 33014 ft 479 kts
2026-04-21 05:09 25.19153 114.71517 33014 ft 480 kts
2026-04-21 05:09 25.25627 114.73191 33019 ft 481 kts
2026-04-21 05:10 25.32141 114.74871 33022 ft 481 kts
2026-04-21 05:10 25.38667 114.76548 33024 ft 481 kts
2026-04-21 05:11 25.45194 114.78231 33026 ft 482 kts
2026-04-21 05:11 25.51725 114.79926 33026 ft 482 kts
2026-04-21 05:12 25.58262 114.81628 33022 ft 483 kts
2026-04-21 05:12 25.64800 114.83330 33025 ft 483 kts
2026-04-21 05:13 25.71349 114.85034 33021 ft 483 kts
2026-04-21 05:13 25.77839 114.87013 33023 ft 490 kts 18°
2026-04-21 05:14 25.83687 114.91024 33033 ft 499 kts 39°
2026-04-21 05:14 25.88478 114.96564 33016 ft 497 kts 44°
2026-04-21 05:15 25.93198 115.02165 33023 ft 497 kts 44°
2026-04-21 05:15 25.97934 115.07768 33025 ft 497 kts 44°
2026-04-21 05:16 26.02657 115.13382 33022 ft 497 kts 44°
2026-04-21 05:16 26.07379 115.19001 33024 ft 498 kts 44°
2026-04-21 05:17 26.12103 115.24633 33024 ft 498 kts 44°
2026-04-21 05:17 26.16822 115.30273 33032 ft 498 kts 44°
2026-04-21 05:18 26.21542 115.35906 33039 ft 498 kts 44°
2026-04-21 05:18 26.26260 115.41553 33044 ft 497 kts 44°
2026-04-21 05:19 26.30968 115.47199 33046 ft 497 kts 44°
2026-04-21 05:19 26.35679 115.52846 33043 ft 497 kts 44°
2026-04-21 05:20 26.40387 115.58499 33046 ft 498 kts 44°
2026-04-21 05:20 26.45094 115.64169 33044 ft 498 kts 44°
2026-04-21 05:21 26.49811 115.69844 33043 ft 498 kts 44°
2026-04-21 05:21 26.54528 115.75516 33037 ft 499 kts 44°
2026-04-21 05:22 26.59237 115.81205 33035 ft 499 kts 45°
2026-04-21 05:22 26.63949 115.86914 33038 ft 500 kts 45°
2026-04-21 05:23 26.68664 115.92630 33039 ft 500 kts 45°
2026-04-21 05:23 26.73394 115.98355 33039 ft 501 kts 45°
2026-04-21 05:24 26.78122 116.04087 33022 ft 501 kts 45°
2026-04-21 05:24 26.82846 116.09838 33019 ft 502 kts 45°
2026-04-21 05:25 26.87578 116.15597 33025 ft 503 kts 45°
2026-04-21 05:25 26.92313 116.21365 33032 ft 503 kts 45°
2026-04-21 05:26 26.97072 116.27135 33022 ft 504 kts 44°
2026-04-21 05:26 27.01855 116.32874 33038 ft 504 kts 44°
2026-04-21 05:27 27.05839 116.37661 33033 ft 505 kts 44°
2026-04-21 05:27 27.10619 116.43439 33034 ft 505 kts 44°
2026-04-21 05:28 27.15430 116.49266 33051 ft 505 kts 44°
2026-04-21 05:28 27.20173 116.55020 33054 ft 505 kts 44°
2026-04-21 05:29 27.24986 116.60762 33045 ft 504 kts 43°
2026-04-21 05:29 27.29889 116.66417 33047 ft 504 kts 42°
2026-04-21 05:30 27.34791 116.72053 33052 ft 504 kts 43°
2026-04-21 05:30 27.39673 116.77734 33044 ft 505 kts 43°
2026-04-21 05:31 27.44530 116.83442 33048 ft 505 kts 43°
2026-04-21 05:31 27.49385 116.89146 33044 ft 504 kts 43°
2026-04-21 05:32 27.54255 116.94838 33050 ft 504 kts 42°
2026-04-21 05:32 27.59151 117.00489 33056 ft 504 kts 42°
2026-04-21 05:33 27.64062 117.06140 33056 ft 504 kts 42°
2026-04-21 05:33 27.68961 117.11805 33060 ft 503 kts 42°
2026-04-21 05:34 27.73837 117.17465 33057 ft 503 kts 42°
2026-04-21 05:34 27.78706 117.23137 33065 ft 502 kts 43°
2026-04-21 05:35 27.83568 117.28802 33064 ft 502 kts 43°
2026-04-21 05:35 27.88433 117.34468 33065 ft 502 kts 43°
2026-04-21 05:36 27.93295 117.40144 33055 ft 502 kts 43°
2026-04-21 05:36 27.98149 117.45818 33053 ft 502 kts 43°
2026-04-21 05:37 28.03004 117.51500 33050 ft 503 kts 42°
2026-04-21 05:37 28.07864 117.57189 33051 ft 503 kts 42°
2026-04-21 05:38 28.12730 117.62903 33051 ft 503 kts 42°
2026-04-21 05:38 28.17589 117.68607 33055 ft 503 kts 42°
2026-04-21 05:39 28.22448 117.74314 33053 ft 503 kts 42°
2026-04-21 05:39 28.27304 117.80035 33056 ft 503 kts 43°
2026-04-21 05:40 28.32148 117.85750 33057 ft 503 kts 42°
2026-04-21 05:40 28.37006 117.91469 33055 ft 503 kts 42°
2026-04-21 05:41 28.41854 117.97203 33056 ft 503 kts 43°
2026-04-21 05:41 28.46645 118.03016 33061 ft 503 kts 44°
2026-04-21 05:42 28.51378 118.08892 33063 ft 504 kts 44°
2026-04-21 05:42 28.56113 118.14769 33066 ft 503 kts 44°
2026-04-21 05:43 28.60862 118.20624 33065 ft 504 kts 44°
2026-04-21 05:43 28.65616 118.26481 33070 ft 504 kts 44°
2026-04-21 05:44 28.70367 118.32352 33081 ft 504 kts 44°
2026-04-21 05:44 28.75105 118.38232 33081 ft 504 kts 44°
2026-04-21 05:45 28.79856 118.44123 33084 ft 504 kts 44°
2026-04-21 05:45 28.84605 118.50019 33083 ft 505 kts 44°
2026-04-21 05:46 28.89352 118.55921 33081 ft 505 kts 44°
2026-04-21 05:46 28.94098 118.61835 33087 ft 505 kts 44°
2026-04-21 05:47 28.98851 118.67767 33095 ft 506 kts 44°
2026-04-21 05:47 29.03595 118.73697 33101 ft 506 kts 44°
2026-04-21 05:48 29.08343 118.79634 33108 ft 506 kts 44°
2026-04-21 05:48 29.13083 118.85569 33114 ft 505 kts 44°
2026-04-21 05:49 29.17813 118.91500 33120 ft 504 kts 44°
2026-04-21 05:49 29.22528 118.97433 33116 ft 503 kts 44°
2026-04-21 05:50 29.27231 119.03353 33115 ft 503 kts 44°
2026-04-21 05:50 29.31902 119.09245 33121 ft 502 kts 44°
2026-04-21 05:51 29.36585 119.15178 33118 ft 502 kts 44°
2026-04-21 05:51 29.41275 119.21117 33128 ft 503 kts 44°
2026-04-21 05:52 29.45987 119.27105 33121 ft 502 kts 44°
2026-04-21 05:52 29.50632 119.33019 33123 ft 502 kts 44°
2026-04-21 05:53 29.55303 119.38971 33123 ft 502 kts 44°
2026-04-21 05:53 29.60007 119.44965 33123 ft 502 kts 45°
2026-04-21 05:54 29.64651 119.50884 33125 ft 502 kts 45°
2026-04-21 05:54 29.69312 119.56881 33125 ft 503 kts 45°
2026-04-21 05:55 29.73968 119.62914 33118 ft 504 kts 44°
2026-04-21 05:55 29.79301 119.68006 33116 ft 495 kts 26°
2026-04-21 05:56 29.85255 119.71978 33111 ft 495 kts 25°
2026-04-21 05:56 29.91227 119.75974 33124 ft 497 kts 25°
2026-04-21 05:57 29.97186 119.79997 33144 ft 496 kts 25°
2026-04-21 05:57 30.03135 119.84026 33159 ft 495 kts 25°
2026-04-21 05:58 30.09079 119.88039 33167 ft 494 kts 25°
2026-04-21 05:58 30.15014 119.92043 33171 ft 493 kts 25°
2026-04-21 05:59 30.20934 119.96034 33174 ft 493 kts 26°
2026-04-21 06:00 30.29797 120.02052 33171 ft 492 kts 26°
2026-04-21 06:00 30.35706 120.06075 33176 ft 492 kts 26°
2026-04-21 06:01 30.41612 120.10085 33176 ft 491 kts 26°
2026-04-21 06:01 30.47509 120.14094 33180 ft 491 kts 26°
2026-04-21 06:02 30.53394 120.18108 33181 ft 491 kts 26°
2026-04-21 06:02 30.59279 120.22127 33179 ft 490 kts 26°
2026-04-21 06:03 30.65150 120.26142 33184 ft 490 kts 26°
2026-04-21 06:03 30.70978 120.30144 33184 ft 490 kts 26°
2026-04-21 06:04 30.76884 120.34202 33181 ft 489 kts 26°
2026-04-21 06:04 30.82740 120.38237 33182 ft 490 kts 27°
2026-04-21 06:04 30.85486 120.40522 33185 ft 494 kts 38°
2026-04-21 06:05 30.87919 120.43370 33179 ft 498 kts 48°
2026-04-21 06:05 30.89915 120.46671 33175 ft 501 kts 59°
2026-04-21 06:05 30.91411 120.50339 33167 ft 503 kts 69°
2026-04-21 06:06 30.93407 120.58213 33159 ft 505 kts 73°
2026-04-21 06:06 30.95337 120.66031 33155 ft 506 kts 73°
2026-04-21 06:07 30.97278 120.73910 33167 ft 506 kts 73°
2026-04-21 06:07 30.99218 120.81812 33175 ft 507 kts 73°
2026-04-21 06:08 31.01166 120.89717 33175 ft 507 kts 73°
2026-04-21 06:08 31.03108 120.97629 33175 ft 508 kts 74°
2026-04-21 06:09 31.04725 121.04252 33180 ft 508 kts 74°
2026-04-21 06:09 31.06645 121.12125 33193 ft 508 kts 74°
2026-04-21 06:10 31.08610 121.20101 33170 ft 508 kts 73°
2026-04-21 06:10 31.10681 121.27986 33186 ft 509 kts 72°
2026-04-21 06:11 31.12534 121.35851 33181 ft 508 kts 82°
2026-04-21 06:11 31.13460 121.44090 33183 ft 509 kts 83°
2026-04-21 06:12 31.14349 121.52284 33184 ft 509 kts 83°
2026-04-21 06:12 31.15232 121.60432 33197 ft 509 kts 83°
2026-04-21 06:13 31.16130 121.68692 33205 ft 510 kts 83°
2026-04-21 06:13 31.17016 121.76853 33200 ft 510 kts 83°
2026-04-21 06:14 31.18461 121.84959 33206 ft 510 kts 77°
2026-04-21 06:14 31.20025 121.93048 33212 ft 511 kts 78°
2026-04-21 06:15 31.21569 122.01142 33198 ft 511 kts 78°
2026-04-21 06:15 31.23109 122.09261 33196 ft 512 kts 78°
2026-04-21 06:16 31.24654 122.17376 33195 ft 512 kts 78°
2026-04-21 06:16 31.26203 122.25504 33209 ft 513 kts 78°
2026-04-21 06:17 31.27741 122.33643 33205 ft 513 kts 78°
2026-04-21 06:17 31.29270 122.41800 33201 ft 514 kts 78°
2026-04-21 06:18 31.30811 122.49975 33211 ft 515 kts 78°
2026-04-21 06:18 31.32389 122.58137 33204 ft 515 kts 78°
2026-04-21 06:19 31.33963 122.66319 33211 ft 516 kts 78°
2026-04-21 06:19 31.35529 122.74508 33213 ft 516 kts 78°
2026-04-21 06:20 31.37086 122.82711 33211 ft 516 kts 78°
2026-04-21 06:20 31.38680 122.90920 33218 ft 517 kts 78°
2026-04-21 06:21 31.40286 122.99123 33214 ft 517 kts 78°
2026-04-21 06:21 31.41876 123.07340 33229 ft 517 kts 78°
2026-04-21 06:22 31.43454 123.15558 33218 ft 518 kts 78°
2026-04-21 06:22 31.45032 123.23795 33236 ft 518 kts 78°
2026-04-21 06:23 31.46606 123.32036 33238 ft 518 kts 78°
2026-04-21 06:23 31.48164 123.40271 33240 ft 518 kts 78°
2026-04-21 06:24 31.49713 123.48503 33247 ft 518 kts 78°
2026-04-21 06:24 31.51371 123.56728 33243 ft 518 kts 76°
2026-04-21 06:25 31.53229 123.64877 33230 ft 518 kts 75°
2026-04-21 06:25 31.55109 123.73037 33240 ft 519 kts 76°
2026-04-21 06:26 31.56923 123.81229 33243 ft 519 kts 76°
2026-04-21 06:26 31.58699 123.89429 33194 ft 519 kts 76°
2026-04-21 06:27 31.60474 123.97617 33131 ft 519 kts 76°
2026-04-21 06:27 31.62273 124.05814 33128 ft 519 kts 76°
2026-04-21 06:28 31.64111 124.14004 33134 ft 519 kts 75°
2026-04-21 06:28 31.65967 124.22206 33129 ft 520 kts 75°
2026-04-21 06:29 31.67798 124.30419 33133 ft 520 kts 76°
2026-04-21 06:29 31.69613 124.38639 33133 ft 520 kts 76°
2026-04-21 06:30 31.71421 124.46861 33140 ft 520 kts 76°
2026-04-21 06:30 31.73232 124.55086 33138 ft 520 kts 76°
2026-04-21 06:31 31.75036 124.63329 33140 ft 520 kts 76°
2026-04-21 06:31 31.76828 124.71570 33136 ft 521 kts 76°
2026-04-21 06:32 31.78624 124.79811 33134 ft 521 kts 76°
2026-04-21 06:32 31.80421 124.88063 33136 ft 521 kts 76°
2026-04-21 06:33 31.82230 124.96313 33134 ft 521 kts 75°
2026-04-21 06:33 31.84100 125.04560 33131 ft 522 kts 75°
2026-04-21 06:34 31.85978 125.12806 33136 ft 522 kts 75°
2026-04-21 06:34 31.87841 125.21066 33137 ft 522 kts 75°
2026-04-21 06:35 31.89682 125.29338 33139 ft 523 kts 75°
2026-04-21 06:35 31.91518 125.37611 33134 ft 523 kts 75°
2026-04-21 06:36 31.93355 125.45891 33136 ft 523 kts 75°
2026-04-21 06:36 31.95196 125.54172 33136 ft 523 kts 75°
2026-04-21 06:37 31.97039 125.62465 33140 ft 524 kts 75°
2026-04-21 06:37 31.98871 125.70774 33138 ft 524 kts 75°
2026-04-21 06:38 32.00682 125.79080 33137 ft 524 kts 75°
2026-04-21 06:38 32.02504 125.87415 33138 ft 525 kts 75°
2026-04-21 06:39 32.04466 125.95678 33139 ft 524 kts 66°
2026-04-21 06:39 32.08170 126.02963 33132 ft 516 kts 45°
2026-04-21 06:39 32.10706 126.05919 33133 ft 509 kts 34°
2026-04-21 06:40 32.13573 126.08302 33131 ft 501 kts 24°
2026-04-21 06:40 32.19900 126.11467 33126 ft 492 kts 13°
2026-04-21 06:41 32.26344 126.14203 33135 ft 493 kts 13°
2026-04-21 06:41 32.32796 126.16961 33144 ft 493 kts 13°
2026-04-21 06:42 32.39249 126.19706 33147 ft 493 kts 13°
2026-04-21 06:42 32.45696 126.22453 33153 ft 493 kts 13°
2026-04-21 06:43 32.52148 126.25209 33154 ft 493 kts 13°
2026-04-21 06:43 32.58593 126.27973 33160 ft 493 kts 13°
2026-04-21 06:44 32.65040 126.30737 33161 ft 493 kts 13°
2026-04-21 06:44 32.71477 126.33511 33164 ft 492 kts 13°
2026-04-21 06:45 32.77917 126.36292 33163 ft 492 kts 13°
2026-04-21 06:45 32.84351 126.39065 33162 ft 492 kts 13°
2026-04-21 06:46 32.90781 126.41841 33165 ft 492 kts 13°
2026-04-21 06:46 32.97215 126.44619 33158 ft 491 kts 13°
2026-04-21 06:47 33.02557 126.46931 33155 ft 491 kts 13°
2026-04-21 06:47 33.10074 126.50166 33152 ft 491 kts 13°
2026-04-21 06:48 33.16455 126.52906 33141 ft 492 kts 13°
2026-04-21 06:48 33.21807 126.55210 33137 ft 492 kts 13°
2026-04-21 06:49 33.28264 126.57990 33139 ft 493 kts 13°
2026-04-21 06:49 33.34721 126.60787 33144 ft 494 kts 13°
2026-04-21 06:50 33.41180 126.63594 33146 ft 494 kts 13°
2026-04-21 06:50 33.47645 126.66407 33152 ft 494 kts 13°
2026-04-21 06:51 33.54111 126.69157 33152 ft 490 kts
2026-04-21 06:51 33.60716 126.70385 33158 ft 476 kts 356°
2026-04-21 06:52 33.67318 126.71061 33162 ft 477 kts 356°
2026-04-21 06:52 33.73931 126.71750 33165 ft 476 kts 357°
2026-04-21 06:53 33.80531 126.72449 33174 ft 476 kts 356°
2026-04-21 06:53 33.87119 126.73146 33178 ft 475 kts 356°
2026-04-21 06:54 33.93710 126.73843 33182 ft 475 kts 356°
2026-04-21 06:54 34.00283 126.74526 33187 ft 474 kts 356°
2026-04-21 06:55 34.06847 126.75218 33187 ft 473 kts 356°
2026-04-21 06:55 34.13392 126.75906 33187 ft 471 kts 356°
2026-04-21 06:56 34.19917 126.76581 33185 ft 471 kts 355°
2026-04-21 06:56 34.26439 126.77266 33179 ft 470 kts 355°
2026-04-21 06:57 34.32955 126.77956 33180 ft 470 kts 355°
2026-04-21 06:57 34.39459 126.78653 33174 ft 469 kts 355°
2026-04-21 06:58 34.45957 126.79359 33172 ft 469 kts 355°
2026-04-21 06:58 34.52453 126.80059 33167 ft 468 kts 355°
2026-04-21 06:59 34.58945 126.80744 33170 ft 468 kts 355°
2026-04-21 06:59 34.65423 126.81430 33160 ft 467 kts 355°
2026-04-21 07:00 34.71888 126.82121 33159 ft 466 kts 355°
2026-04-21 07:00 34.78352 126.82804 33160 ft 465 kts 355°
2026-04-21 07:01 34.84792 126.83495 33152 ft 464 kts 355°
2026-04-21 07:01 34.93577 126.84454 33146 ft 463 kts 355°
2026-04-21 07:02 34.99990 126.85148 33146 ft 462 kts 355°
2026-04-21 07:02 35.06396 126.85837 33149 ft 461 kts 355°
2026-04-21 07:03 35.12786 126.86532 33150 ft 461 kts 354°
2026-04-21 07:03 35.19165 126.87219 33147 ft 460 kts 354°
2026-04-21 07:04 35.25530 126.87911 33150 ft 459 kts 354°
2026-04-21 07:04 35.31891 126.88607 33156 ft 459 kts 354°
2026-04-21 07:05 35.38237 126.89305 33153 ft 458 kts 354°
2026-04-21 07:05 35.44588 126.90002 33160 ft 457 kts 354°
2026-04-21 07:06 35.50923 126.90694 33165 ft 457 kts 353°
2026-04-21 07:06 35.57255 126.91392 33167 ft 457 kts 353°
2026-04-21 07:07 35.63584 126.92081 33168 ft 456 kts 353°
2026-04-21 07:07 35.69918 126.92766 33166 ft 456 kts 353°
2026-04-21 07:08 35.76243 126.93454 33163 ft 456 kts 353°
2026-04-21 07:08 35.82560 126.94159 33160 ft 456 kts 353°
2026-04-21 07:09 35.88873 126.94855 33098 ft 454 kts 353°
2026-04-21 07:09 35.92025 126.95199 32555 ft 455 kts 353°
2026-04-21 07:09 35.95176 126.95541 32049 ft 456 kts 353°
2026-04-21 07:10 35.98344 126.95887 31532 ft 458 kts 353°
2026-04-21 07:10 36.01527 126.96237 31030 ft 460 kts 353°
2026-04-21 07:10 36.04727 126.96592 30540 ft 462 kts 353°
2026-04-21 07:10 36.07935 126.96951 30035 ft 464 kts 354°
2026-04-21 07:11 36.11161 126.97315 29455 ft 466 kts 354°
2026-04-21 07:11 36.14394 126.97676 28893 ft 467 kts 354°
2026-04-21 07:11 36.17634 126.98037 28346 ft 469 kts 354°
2026-04-21 07:11 36.20887 126.98401 27814 ft 470 kts 354°
2026-04-21 07:12 36.24147 126.98765 27283 ft 472 kts 355°
2026-04-21 07:12 36.27423 126.99131 26755 ft 473 kts 355°
2026-04-21 07:12 36.30710 126.99498 26247 ft 475 kts 355°
2026-04-21 07:12 36.33998 126.99867 25747 ft 476 kts 355°
2026-04-21 07:13 36.37310 127.00232 25248 ft 477 kts 355°
2026-04-21 07:13 36.40601 127.00315 24767 ft 470 kts 348°
2026-04-21 07:13 36.43874 127.00192 24293 ft 471 kts 349°
2026-04-21 07:13 36.47154 127.00067 23825 ft 470 kts 349°
2026-04-21 07:14 36.50413 126.99945 23285 ft 468 kts 349°
2026-04-21 07:14 36.53660 126.99829 22728 ft 464 kts 350°
2026-04-21 07:14 36.56871 126.99717 22179 ft 460 kts 350°
2026-04-21 07:14 36.60060 126.99607 21641 ft 456 kts 350°
2026-04-21 07:15 36.63213 126.99497 21106 ft 451 kts 351°
2026-04-21 07:15 36.66338 126.99386 20584 ft 446 kts 350°
2026-04-21 07:15 36.69373 126.98944 20069 ft 433 kts 341°
2026-04-21 07:15 36.72193 126.97941 19578 ft 422 kts 333°
2026-04-21 07:16 36.74855 126.96403 19069 ft 412 kts 325°
2026-04-21 07:16 36.77213 126.94446 18586 ft 404 kts 317°
2026-04-21 07:16 36.79129 126.92013 18069 ft 395 kts 305°
2026-04-21 07:16 36.80816 126.89315 17559 ft 393 kts 305°
2026-04-21 07:17 36.82514 126.86591 17021 ft 391 kts 305°
2026-04-21 07:17 36.84168 126.83913 16509 ft 389 kts 305°
2026-04-21 07:17 36.85808 126.81246 15998 ft 386 kts 305°
2026-04-21 07:17 36.87418 126.78617 15518 ft 384 kts 305°
2026-04-21 07:18 36.89058 126.75935 15026 ft 382 kts 305°
2026-04-21 07:18 36.90670 126.73300 14543 ft 381 kts 306°
2026-04-21 07:18 36.92272 126.70679 14080 ft 379 kts 306°
2026-04-21 07:18 36.93870 126.68065 13572 ft 377 kts 306°
2026-04-21 07:19 36.95460 126.65465 13044 ft 375 kts 306°
2026-04-21 07:19 36.97041 126.62877 12526 ft 374 kts 306°
2026-04-21 07:19 36.98616 126.60301 12093 ft 373 kts 306°
2026-04-21 07:19 37.00194 126.57717 11984 ft 373 kts 306°
2026-04-21 07:20 37.01765 126.55134 12010 ft 374 kts 306°
2026-04-21 07:20 37.03389 126.52596 12011 ft 375 kts 310°
2026-04-21 07:20 37.05290 126.50353 12010 ft 377 kts 319°
2026-04-21 07:20 37.07404 126.48405 11878 ft 375 kts 321°
2026-04-21 07:21 37.09509 126.46502 11209 ft 372 kts 321°
2026-04-21 07:21 37.11602 126.44605 10525 ft 370 kts 321°
2026-04-21 07:21 37.13680 126.42716 9868 ft 368 kts 321°
2026-04-21 07:21 37.15700 126.40879 9720 ft 350 kts 321°
2026-04-21 07:22 37.17602 126.39147 9587 ft 334 kts 321°
2026-04-21 07:22 37.19325 126.37497 9466 ft 318 kts 315°
2026-04-21 07:22 37.20773 126.35545 9298 ft 303 kts 304°
2026-04-21 07:22 37.21867 126.33369 9170 ft 288 kts 295°
2026-04-21 07:23 37.22607 126.31097 9032 ft 275 kts 287°
2026-04-21 07:23 37.23392 126.28967 8873 ft 268 kts 306°
2026-04-21 07:23 37.24826 126.27508 8564 ft 270 kts 332°
2026-04-21 07:23 37.26615 126.26744 8207 ft 272 kts 340°
2026-04-21 07:24 37.28430 126.26121 8013 ft 270 kts 341°
2026-04-21 07:24 37.30257 126.25510 8019 ft 272 kts 341°
2026-04-21 07:24 37.32079 126.24906 7785 ft 271 kts 341°
2026-04-21 07:24 37.33899 126.24303 7433 ft 269 kts 341°
2026-04-21 07:25 37.35707 126.23704 7100 ft 268 kts 341°
2026-04-21 07:25 37.37502 126.23110 6862 ft 263 kts 341°
2026-04-21 07:25 37.39235 126.22541 6741 ft 253 kts 341°
2026-04-21 07:25 37.40909 126.21996 6615 ft 244 kts 341°
2026-04-21 07:26 37.42528 126.21477 6485 ft 235 kts 341°
2026-04-21 07:26 37.44077 126.20989 6371 ft 224 kts 341°
2026-04-21 07:26 37.45576 126.20526 6076 ft 220 kts 341°
2026-04-21 07:26 37.47064 126.20070 5718 ft 220 kts 341°
2026-04-21 07:27 37.48548 126.19619 5357 ft 219 kts 341°
2026-04-21 07:27 37.50076 126.19443 4999 ft 224 kts 356°
2026-04-21 07:27 37.51633 126.19527 4643 ft 224 kts 356°
2026-04-21 07:27 37.53192 126.19612 4273 ft 223 kts 356°
2026-04-21 07:28 37.54220 126.19676 4031 ft 224 kts 359°
2026-04-21 07:28 37.55762 126.20100 3646 ft 230 kts 14°
2026-04-21 07:28 37.57216 126.21048 3279 ft 236 kts 31°
2026-04-21 07:28 37.58415 126.22437 2931 ft 239 kts 47°
2026-04-21 07:29 37.59378 126.24124 2720 ft 232 kts 52°
2026-04-21 07:29 37.60254 126.25780 2570 ft 223 kts 63°
2026-04-21 07:29 37.60539 126.27626 2425 ft 209 kts 97°
2026-04-21 07:29 37.60086 126.29301 2074 ft 200 kts 131°
2026-04-21 07:30 37.59087 126.30411 2025 ft 192 kts 151°
2026-04-21 07:30 37.57995 126.31407 2014 ft 193 kts 152°
2026-04-21 07:30 37.56909 126.32388 2003 ft 187 kts 152°
2026-04-21 07:30 37.55885 126.33307 2024 ft 178 kts 152°
2026-04-21 07:31 37.54881 126.34203 1941 ft 175 kts 153°
2026-04-21 07:31 37.53918 126.35065 1775 ft 164 kts 153°
2026-04-21 07:31 37.53005 126.35880 1558 ft 158 kts 153°
2026-04-21 07:31 37.52121 126.36668 1348 ft 154 kts 153°
2026-04-21 07:32 37.51251 126.37442 1130 ft 152 kts 152°
2026-04-21 07:32 37.50392 126.38208 939 ft 150 kts 151°
2026-04-21 07:32 37.49551 126.38958 727 ft 146 kts 151°
2026-04-21 07:32 37.48736 126.39684 523 ft 141 kts 149°
2026-04-21 07:33 37.47945 126.40389 334 ft 138 kts 149°
2026-04-21 07:33 37.47160 126.41088 154 ft 138 kts 152°
2026-04-21 07:33 37.46397 126.41790 39 ft 126 kts 152°
2026-04-21 07:33 37.45778 126.42317 32 ft 89 kts 143°
2026-04-21 07:34 37.45352 126.42702 33 ft 61 kts 145°
2026-04-21 07:34 37.45143 126.42930 33 ft 35 kts 125°
2026-04-21 07:34 37.45077 126.43092 33 ft 13 kts 114°
2026-04-21 07:34 37.45059 126.43202 33 ft 13 kts 80°
2026-04-21 07:35 37.45098 126.43293 33 ft 12 kts 54°
2026-04-21 07:35 37.45150 126.43383 33 ft 13 kts 53°
2026-04-21 07:35 37.45208 126.43482 33 ft 15 kts 53°
2026-04-21 07:35 37.45264 126.43582 33 ft 13 kts 56°
2026-04-21 07:36 37.45290 126.43629 33 ft 0 kts 56°
2026-04-21 07:36 37.45290 126.43631 33 ft 1 kts 56°
2026-04-21 07:36 37.45297 126.43643 33 ft 3 kts 56°
2026-04-21 07:36 37.45312 126.43671 33 ft 5 kts 53°
2026-04-21 07:37 37.45358 126.43683 33 ft 9 kts 344°
2026-04-21 07:37 37.45422 126.43632 32 ft 12 kts 324°
2026-04-21 07:37 37.45491 126.43567 32 ft 13 kts 324°
2026-04-21 07:37 37.45569 126.43500 33 ft 14 kts 326°
2026-04-21 07:38 37.45651 126.43428 33 ft 15 kts 324°
2026-04-21 07:38 37.45731 126.43351 31 ft 13 kts 321°
2026-04-21 07:38 37.45809 126.43285 33 ft 14 kts 331°
2026-04-21 07:38 37.45885 126.43322 32 ft 11 kts 51°
2026-04-21 07:39 37.45948 126.43349 33 ft 11 kts 336°
2026-04-21 07:39 37.46012 126.43294 33 ft 12 kts 324°
2026-04-21 07:39 37.46080 126.43233 33 ft 10 kts 325°
2026-04-21 07:39 37.46135 126.43194 33 ft 6 kts
2026-04-21 07:40 37.46172 126.43236 33 ft 7 kts 53°
2026-04-21 07:40 37.46187 126.43263 33 ft 2 kts 55°
2026-04-21 07:40 37.46191 126.43269 33 ft 0 kts 54°